Time,TemperatureF,DewpointF,PressureIn,WindDirection,WindDirectionDegrees,WindSpeedMPH,WindSpeedGustMPH,Humidity,HourlyPrecipIn,Conditions,Clouds,dailyrainin,SoftwareType,DateUTC
2013-02-14 00:03:00,49.6,43.4,30.12,SSW,202,0.0,2.7,79,0.00,,,0.00,VWS V14.01,2013-02-14 08:03:00,
2013-02-14 00:08:00,49.6,43.4,30.12,SSW,202,0.0,0.0,79,0.00,,,0.00,VWS V14.01,2013-02-14 08:08:00,
2013-02-14 00:13:00,49.6,43.4,30.09,South,180,0.0,0.0,79,0.00,,,0.00,VWS V14.01,2013-02-14 08:13:00,
2013-02-14 00:19:00,49.6,43.4,30.09,South,180,0.0,0.0,79,0.00,,,0.00,VWS V14.01,2013-02-14 08:19:00,
2013-02-14 00:24:00,49.6,43.4,30.09,WSW,248,0.0,0.0,79,0.00,,,0.00,VWS V14.01,2013-02-14 08:24:00,
2013-02-14 00:29:00,49.5,43.2,30.09,SSW,202,0.0,2.7,79,0.00,,,0.00,VWS V14.01,2013-02-14 08:29:00,
2013-02-14 00:34:00,49.5,43.2,30.09,SSW,202,3.1,3.6,79,0.00,,,0.00,VWS V14.01,2013-02-14 08:34:00,
2013-02-14 00:39:00,49.5,43.6,30.09,South,180,0.0,0.0,80,0.00,,,0.00,VWS V14.01,2013-02-14 08:39:00,
2013-02-14 00:44:00,49.5,43.6,30.09,NNW,338,2.7,2.7,80,0.00,,,0.00,VWS V14.01,2013-02-14 08:44:00,
2013-02-14 00:49:00,49.5,43.6,30.09,NNE,22,0.0,0.0,80,0.00,,,0.00,VWS V14.01,2013-02-14 08:49:00,
2013-02-14 00:54:00,49.5,43.6,30.09,NNW,338,0.0,2.2,80,0.00,,,0.00,VWS V14.01,2013-02-14 08:54:00,
2013-02-14 00:59:00,49.5,43.6,30.09,NNW,338,0.0,0.0,80,0.00,,,0.00,VWS V14.01,2013-02-14 08:59:00,
2013-02-14 01:05:00,49.3,43.7,30.09,North,0,0.0,0.0,81,0.00,,,0.00,VWS V14.01,2013-02-14 09:05:00,
2013-02-14 01:10:00,49.3,43.7,30.09,NNE,22,0.0,0.0,81,0.00,,,0.00,VWS V14.01,2013-02-14 09:10:00,
2013-02-14 01:15:00,49.3,43.7,30.09,North,0,0.0,0.0,81,0.00,,,0.00,VWS V14.01,2013-02-14 09:15:00,
2013-02-14 01:20:00,49.3,43.7,30.09,NNE,22,0.0,2.7,81,0.00,,,0.00,VWS V14.01,2013-02-14 09:20:00,
2013-02-14 01:25:00,49.1,43.5,30.09,NNE,22,0.0,3.1,81,0.00,,,0.00,VWS V14.01,2013-02-14 09:25:00,
2013-02-14 01:31:00,49.1,43.5,30.09,North,0,0.0,0.0,81,0.00,,,0.00,VWS V14.01,2013-02-14 09:31:00,
2013-02-14 01:36:00,49.1,43.8,30.09,NNW,338,0.0,0.0,82,0.00,,,0.00,VWS V14.01,2013-02-14 09:36:00,
2013-02-14 01:41:00,48.9,43.7,30.09,NNE,22,0.0,0.0,82,0.00,,,0.00,VWS V14.01,2013-02-14 09:41:00,
2013-02-14 01:46:00,48.9,43.7,30.12,NNW,338,0.0,0.0,82,0.00,,,0.00,VWS V14.01,2013-02-14 09:46:00,
2013-02-14 01:51:00,48.9,43.7,30.12,North,0,0.0,0.0,82,0.00,,,0.00,VWS V14.01,2013-02-14 09:51:00,
2013-02-14 01:56:00,48.9,43.7,30.12,NW,315,0.0,0.0,82,0.00,,,0.00,VWS V14.01,2013-02-14 09:56:00,
2013-02-14 02:01:00,48.9,44.0,30.09,North,0,0.0,2.2,83,0.00,,,0.00,VWS V14.01,2013-02-14 10:01:00,
2013-02-14 02:06:00,48.9,44.0,30.09,North,0,0.0,0.0,83,0.00,,,0.00,VWS V14.01,2013-02-14 10:06:00,
2013-02-14 02:11:00,48.9,44.0,30.09,North,0,0.0,2.7,83,0.00,,,0.00,VWS V14.01,2013-02-14 10:11:00,
2013-02-14 02:16:00,49.1,44.2,30.09,North,0,0.0,2.7,83,0.00,,,0.00,VWS V14.01,2013-02-14 10:16:00,
2013-02-14 02:22:00,49.1,44.2,30.09,NNE,22,0.0,0.0,83,0.00,,,0.00,VWS V14.01,2013-02-14 10:22:00,
2013-02-14 02:27:00,49.1,44.2,30.09,NNW,338,0.0,0.0,83,0.00,,,0.00,VWS V14.01,2013-02-14 10:27:00,
2013-02-14 02:32:00,49.1,44.2,30.09,NNW,338,0.0,2.2,83,0.00,,,0.00,VWS V14.01,2013-02-14 10:32:00,
2013-02-14 02:37:00,49.1,44.2,30.09,North,0,0.0,0.0,83,0.00,,,0.00,VWS V14.01,2013-02-14 10:37:00,
2013-02-14 02:42:00,48.9,44.3,30.09,NNW,338,0.0,0.0,84,0.00,,,0.00,VWS V14.01,2013-02-14 10:42:00,
2013-02-14 02:47:00,48.9,44.3,30.09,North,0,0.0,0.0,84,0.00,,,0.00,VWS V14.01,2013-02-14 10:47:00,
2013-02-14 02:52:00,48.9,44.3,30.09,NNE,22,0.0,0.0,84,0.00,,,0.00,VWS V14.01,2013-02-14 10:52:00,
2013-02-14 02:57:00,48.9,44.6,30.09,North,0,0.0,0.0,85,0.00,,,0.00,VWS V14.01,2013-02-14 10:57:00,
2013-02-14 03:02:00,48.7,44.4,30.09,North,0,0.0,2.7,85,0.00,,,0.00,VWS V14.01,2013-02-14 11:02:00,
2013-02-14 03:08:00,48.7,44.8,30.09,North,0,2.7,2.7,86,0.00,,,0.00,VWS V14.01,2013-02-14 11:08:00,
2013-02-14 03:13:00,48.7,44.8,30.09,NNW,338,0.0,2.7,86,0.00,,,0.00,VWS V14.01,2013-02-14 11:13:00,
2013-02-14 03:18:00,48.7,44.8,30.09,NNE,22,2.2,2.2,86,0.00,,,0.00,VWS V14.01,2013-02-14 11:18:00,
2013-02-14 03:23:00,48.6,44.9,30.09,NNE,22,0.0,0.0,87,0.00,,,0.00,VWS V14.01,2013-02-14 11:23:00,
2013-02-14 03:28:00,48.6,44.9,30.09,NNE,22,0.0,0.0,87,0.00,,,0.00,VWS V14.01,2013-02-14 11:28:00,
2013-02-14 03:33:00,48.6,44.9,30.09,NNE,22,0.0,0.0,87,0.00,,,0.00,VWS V14.01,2013-02-14 11:33:00,
2013-02-14 03:38:00,48.6,44.9,30.09,North,0,0.0,2.7,87,0.00,,,0.00,VWS V14.01,2013-02-14 11:38:00,
2013-02-14 03:43:00,48.4,45.0,30.09,NW,315,2.7,3.1,88,0.00,,,0.00,VWS V14.01,2013-02-14 11:43:00,
2013-02-14 03:49:00,48.2,44.8,30.09,NNE,22,2.7,2.7,88,0.00,,,0.00,VWS V14.01,2013-02-14 11:49:00,
2013-02-14 03:54:00,48.0,44.9,30.09,East,90,0.0,0.0,89,0.00,,,0.00,VWS V14.01,2013-02-14 11:54:00,
2013-02-14 03:59:00,48.0,44.9,30.09,North,0,0.0,0.0,89,0.00,,,0.00,VWS V14.01,2013-02-14 11:59:00,
2013-02-14 04:04:00,48.0,44.9,30.09,North,0,0.0,0.0,89,0.00,,,0.00,VWS V14.01,2013-02-14 12:04:00,
2013-02-14 04:09:00,48.0,45.2,30.09,North,0,0.0,0.0,90,0.00,,,0.00,VWS V14.01,2013-02-14 12:09:00,
2013-02-14 04:14:00,48.0,45.2,30.09,NNW,338,2.7,2.7,90,0.00,,,0.00,VWS V14.01,2013-02-14 12:14:00,
2013-02-14 04:19:00,48.0,45.2,30.09,NNW,338,0.0,0.0,90,0.00,,,0.00,VWS V14.01,2013-02-14 12:19:00,
2013-02-14 04:24:00,48.0,45.5,30.09,NNE,22,0.0,0.0,91,0.00,,,0.00,VWS V14.01,2013-02-14 12:24:00,
2013-02-14 04:30:00,48.2,45.7,30.09,North,0,0.0,0.0,91,0.00,,,0.00,VWS V14.01,2013-02-14 12:30:00,
2013-02-14 04:35:00,48.0,45.5,30.09,East,90,0.0,2.2,91,0.00,,,0.00,VWS V14.01,2013-02-14 12:35:00,
2013-02-14 04:40:00,48.0,45.8,30.09,SE,135,2.7,3.6,92,0.00,,,0.00,VWS V14.01,2013-02-14 12:40:00,
2013-02-14 04:45:00,48.0,45.8,30.09,East,90,3.6,3.6,92,0.00,,,0.00,VWS V14.01,2013-02-14 12:45:00,
2013-02-14 04:50:00,48.0,45.8,30.09,ENE,68,2.7,2.7,92,0.00,,,0.00,VWS V14.01,2013-02-14 12:50:00,
2013-02-14 04:55:00,47.8,45.6,30.09,ESE,112,3.1,3.1,92,0.00,,,0.00,VWS V14.01,2013-02-14 12:55:00,
2013-02-14 05:01:00,48.0,46.1,30.09,SE,135,3.1,4.0,93,0.00,,,0.00,VWS V14.01,2013-02-14 13:01:00,
2013-02-14 05:06:00,47.8,45.9,30.09,ESE,112,2.7,4.0,93,0.00,,,0.00,VWS V14.01,2013-02-14 13:06:00,
2013-02-14 05:11:00,48.0,46.1,30.09,NE,45,3.1,3.1,93,0.00,,,0.00,VWS V14.01,2013-02-14 13:11:00,
2013-02-14 05:16:00,48.0,46.1,30.09,SE,135,2.2,3.1,93,0.00,,,0.00,VWS V14.01,2013-02-14 13:16:00,
2013-02-14 05:21:00,48.0,46.4,30.09,East,90,2.7,2.7,94,0.00,,,0.00,VWS V14.01,2013-02-14 13:21:00,
2013-02-14 05:26:00,47.8,46.2,30.09,ESE,112,3.1,3.6,94,0.00,,,0.00,VWS V14.01,2013-02-14 13:26:00,
2013-02-14 05:31:00,48.0,46.4,30.09,ESE,112,3.1,3.1,94,0.00,,,0.00,VWS V14.01,2013-02-14 13:31:00,
2013-02-14 05:37:00,48.0,46.4,30.09,North,0,2.2,2.2,94,0.00,,,0.00,VWS V14.01,2013-02-14 13:37:00,
2013-02-14 05:42:00,48.0,46.4,30.09,ESE,112,3.1,3.1,94,0.00,,,0.00,VWS V14.01,2013-02-14 13:42:00,
2013-02-14 05:47:00,48.0,46.7,30.09,SE,135,2.2,2.7,95,0.00,,,0.00,VWS V14.01,2013-02-14 13:47:00,
2013-02-14 05:52:00,48.0,46.7,30.09,ESE,112,0.0,0.0,95,0.00,,,0.00,VWS V14.01,2013-02-14 13:52:00,
2013-02-14 05:57:00,48.0,46.7,30.09,ENE,68,0.0,2.7,95,0.00,,,0.00,VWS V14.01,2013-02-14 13:57:00,
2013-02-14 06:02:00,47.8,46.5,30.09,SE,135,3.6,4.9,95,0.00,,,0.00,VWS V14.01,2013-02-14 14:02:00,
2013-02-14 06:08:00,48.0,46.7,30.09,ESE,112,2.2,2.2,95,0.00,,,0.00,VWS V14.01,2013-02-14 14:08:00,
2013-02-14 06:13:00,48.2,46.8,30.09,ESE,112,2.2,2.7,95,0.00,,,0.00,VWS V14.01,2013-02-14 14:13:00,
2013-02-14 06:18:00,48.0,46.7,30.09,East,90,0.0,3.1,95,0.00,,,0.00,VWS V14.01,2013-02-14 14:18:00,
2013-02-14 06:23:00,48.2,46.8,30.09,ESE,112,4.0,4.0,95,0.00,,,0.00,VWS V14.01,2013-02-14 14:23:00,
2013-02-14 06:28:00,48.2,46.6,30.09,ESE,112,0.0,3.1,94,0.00,,,0.00,VWS V14.01,2013-02-14 14:28:00,
2013-02-14 06:34:00,48.2,46.6,30.09,East,90,0.0,2.7,94,0.00,,,0.00,VWS V14.01,2013-02-14 14:34:00,
2013-02-14 06:39:00,48.0,46.4,30.09,SSE,158,0.0,0.0,94,0.00,,,0.00,VWS V14.01,2013-02-14 14:39:00,
2013-02-14 06:44:00,48.0,46.4,30.09,NNW,338,3.1,3.6,94,0.00,,,0.00,VWS V14.01,2013-02-14 14:44:00,
2013-02-14 06:49:00,47.8,45.9,30.09,NNE,22,3.6,4.0,93,0.00,,,0.00,VWS V14.01,2013-02-14 14:49:00,
2013-02-14 06:54:00,47.7,45.7,30.09,WNW,292,3.1,4.0,93,0.00,,,0.00,VWS V14.01,2013-02-14 14:54:00,
2013-02-14 06:59:00,47.5,45.6,30.09,NNW,338,3.6,4.9,93,0.00,,,0.00,VWS V14.01,2013-02-14 14:59:00,
2013-02-14 07:04:00,47.5,45.6,30.09,NW,315,2.7,3.1,93,0.00,,,0.00,VWS V14.01,2013-02-14 15:04:00,
2013-02-14 07:09:00,47.3,45.4,30.09,North,0,2.7,3.1,93,0.00,,,0.00,VWS V14.01,2013-02-14 15:09:00,
2013-02-14 07:14:00,47.3,45.7,30.09,NNW,338,3.6,4.5,94,0.00,,,0.00,VWS V14.01,2013-02-14 15:14:00,
2013-02-14 07:19:00,47.1,45.5,30.09,NNW,338,3.1,4.0,94,0.00,,,0.00,VWS V14.01,2013-02-14 15:19:00,
2013-02-14 07:24:00,46.8,45.1,30.09,NNW,338,3.6,3.6,94,0.00,,,0.00,VWS V14.01,2013-02-14 15:24:00,
2013-02-14 07:29:00,46.8,45.1,30.09,North,0,2.7,3.6,94,0.00,,,0.00,VWS V14.01,2013-02-14 15:29:00,
2013-02-14 07:35:00,46.8,44.8,30.09,North,0,3.1,3.6,93,0.00,,,0.00,VWS V14.01,2013-02-14 15:35:00,
2013-02-14 07:40:00,46.9,45.0,30.09,NNW,338,3.6,4.0,93,0.00,,,0.00,VWS V14.01,2013-02-14 15:40:00,
2013-02-14 07:45:00,46.9,45.0,30.12,NNW,338,4.0,4.0,93,0.00,,,0.00,VWS V14.01,2013-02-14 15:45:00,
2013-02-14 07:50:00,46.9,44.7,30.12,NNW,338,2.7,3.1,92,0.00,,,0.00,VWS V14.01,2013-02-14 15:50:00,
2013-02-14 07:55:00,47.1,44.6,30.12,North,0,4.0,4.0,91,0.00,,,0.00,VWS V14.01,2013-02-14 15:55:00,
2013-02-14 08:00:00,47.1,44.6,30.12,NNW,338,2.7,2.7,91,0.00,,,0.00,VWS V14.01,2013-02-14 16:00:00,
2013-02-14 08:06:00,47.3,44.8,30.12,North,0,2.7,3.1,91,0.00,,,0.00,VWS V14.01,2013-02-14 16:06:00,
2013-02-14 08:11:00,47.7,44.9,30.12,NNW,338,3.1,4.0,90,0.00,,,0.00,VWS V14.01,2013-02-14 16:11:00,
2013-02-14 08:16:00,47.7,44.9,30.12,NNW,338,3.1,4.0,90,0.00,,,0.00,VWS V14.01,2013-02-14 16:16:00,
2013-02-14 08:21:00,47.7,44.9,30.12,NNW,338,0.0,3.6,90,0.00,,,0.00,VWS V14.01,2013-02-14 16:21:00,
2013-02-14 08:26:00,47.5,44.7,30.12,NNW,338,2.7,2.7,90,0.00,,,0.00,VWS V14.01,2013-02-14 16:26:00,
2013-02-14 08:31:00,47.3,44.5,30.12,NNW,338,4.9,4.9,90,0.00,,,0.00,VWS V14.01,2013-02-14 16:31:00,
2013-02-14 08:36:00,47.3,44.5,30.12,North,0,2.7,3.1,90,0.00,,,0.00,VWS V14.01,2013-02-14 16:36:00,
2013-02-14 08:41:00,47.3,44.5,30.12,NNW,338,2.7,4.0,90,0.00,,,0.00,VWS V14.01,2013-02-14 16:41:00,
2013-02-14 08:46:00,47.3,44.8,30.12,NNW,338,3.1,4.0,91,0.00,,,0.00,VWS V14.01,2013-02-14 16:46:00,
2013-02-14 08:52:00,47.3,44.8,30.12,North,0,2.7,3.6,91,0.00,,,0.00,VWS V14.01,2013-02-14 16:52:00,
2013-02-14 08:57:00,47.3,45.1,30.12,NNW,338,3.1,3.1,92,0.00,,,0.00,VWS V14.01,2013-02-14 16:57:00,
2013-02-14 09:02:00,47.3,45.1,30.12,North,0,3.1,3.6,92,0.00,,,0.00,VWS V14.01,2013-02-14 17:02:00,
2013-02-14 09:07:00,47.3,45.4,30.12,NNW,338,3.6,4.0,93,0.00,,,0.00,VWS V14.01,2013-02-14 17:07:00,
2013-02-14 09:12:00,47.3,45.4,30.12,North,0,4.9,4.9,93,0.00,,,0.00,VWS V14.01,2013-02-14 17:12:00,
2013-02-14 09:18:00,47.3,45.4,30.12,North,0,2.7,3.6,93,0.00,,,0.00,VWS V14.01,2013-02-14 17:18:00,
2013-02-14 09:23:00,47.3,45.4,30.12,NNW,338,4.0,4.0,93,0.00,,,0.00,VWS V14.01,2013-02-14 17:23:00,
2013-02-14 09:28:00,47.3,45.4,30.12,North,0,0.0,2.7,93,0.00,,,0.00,VWS V14.01,2013-02-14 17:28:00,
2013-02-14 09:33:00,47.3,45.4,30.12,North,0,3.6,3.6,93,0.00,,,0.00,VWS V14.01,2013-02-14 17:33:00,
2013-02-14 09:38:00,47.5,45.6,30.12,NNW,338,3.1,4.9,93,0.00,,,0.00,VWS V14.01,2013-02-14 17:38:00,
2013-02-14 09:43:00,47.8,46.2,30.15,North,0,2.7,3.1,94,0.00,,,0.00,VWS V14.01,2013-02-14 17:43:00,
2013-02-14 09:49:00,47.8,46.2,30.15,NNE,22,3.6,4.0,94,0.00,,,0.00,VWS V14.01,2013-02-14 17:49:00,
2013-02-14 09:54:00,47.7,45.7,30.15,NNE,22,3.1,4.9,93,0.00,,,0.00,VWS V14.01,2013-02-14 17:54:00,
2013-02-14 09:59:00,47.7,45.7,30.12,NNE,22,3.1,4.0,93,0.00,,,0.00,VWS V14.01,2013-02-14 17:59:00,
2013-02-14 10:04:00,47.3,45.4,30.12,North,0,4.0,4.0,93,0.00,,,0.00,VWS V14.01,2013-02-14 18:04:00,
2013-02-14 10:10:00,47.5,45.8,30.12,NNE,22,3.6,3.6,94,0.00,,,0.00,VWS V14.01,2013-02-14 18:10:00,
2013-02-14 10:15:00,47.8,46.2,30.12,North,0,4.0,4.9,94,0.00,,,0.00,VWS V14.01,2013-02-14 18:15:00,
2013-02-14 10:20:00,48.2,46.6,30.12,NNE,22,3.1,5.4,94,0.00,,,0.00,VWS V14.01,2013-02-14 18:20:00,
2013-02-14 10:25:00,48.2,46.3,30.12,NNW,338,4.0,5.4,93,0.00,,,0.00,VWS V14.01,2013-02-14 18:25:00,
2013-02-14 10:30:00,48.4,46.2,30.12,NNE,22,3.6,4.0,92,0.00,,,0.00,VWS V14.01,2013-02-14 18:30:00,
2013-02-14 10:35:00,48.6,45.8,30.12,NNW,338,4.0,4.0,90,0.00,,,0.00,VWS V14.01,2013-02-14 18:35:00,
2013-02-14 10:40:00,48.6,45.2,30.12,ENE,68,2.7,4.9,88,0.00,,,0.00,VWS V14.01,2013-02-14 18:40:00,
2013-02-14 10:45:00,48.9,45.2,30.15,NNW,338,2.7,3.6,87,0.00,,,0.00,VWS V14.01,2013-02-14 18:45:00,
2013-02-14 10:50:00,49.3,45.0,30.15,North,0,2.7,2.7,85,0.00,,,0.00,VWS V14.01,2013-02-14 18:50:00,
2013-02-14 10:55:00,49.8,45.2,30.15,North,0,3.6,3.6,84,0.00,,,0.00,VWS V14.01,2013-02-14 18:55:00,
2013-02-14 11:01:00,50.2,44.6,30.12,North,0,3.1,3.1,81,0.00,,,0.00,VWS V14.01,2013-02-14 19:01:00,
2013-02-14 11:06:00,50.4,43.4,30.12,NNE,22,3.1,3.1,77,0.00,,,0.00,VWS V14.01,2013-02-14 19:06:00,
2013-02-14 11:11:00,50.9,43.3,30.12,NNW,338,2.7,3.6,75,0.00,,,0.00,VWS V14.01,2013-02-14 19:11:00,
2013-02-14 11:16:00,51.4,43.1,30.12,NNW,338,3.1,3.6,73,0.00,,,0.00,VWS V14.01,2013-02-14 19:16:00,
2013-02-14 11:21:00,52.2,42.3,30.12,North,0,3.1,3.1,69,0.00,,,0.00,VWS V14.01,2013-02-14 19:21:00,
2013-02-14 11:27:00,52.9,41.8,30.12,NNW,338,3.1,3.1,66,0.00,,,0.00,VWS V14.01,2013-02-14 19:27:00,
2013-02-14 11:32:00,53.8,41.1,30.12,North,0,0.0,3.1,62,0.00,,,0.00,VWS V14.01,2013-02-14 19:32:00,
2013-02-14 11:37:00,54.3,40.3,30.12,NW,315,4.0,4.5,59,0.00,,,0.00,VWS V14.01,2013-02-14 19:37:00,
2013-02-14 11:43:00,54.1,39.3,30.12,North,0,4.9,4.9,57,0.00,,,0.00,VWS V14.01,2013-02-14 19:43:00,
2013-02-14 11:48:00,53.6,39.2,30.12,North,0,4.0,4.0,58,0.00,,,0.00,VWS V14.01,2013-02-14 19:48:00,
2013-02-14 11:53:00,53.4,39.0,30.12,NNW,338,4.0,4.0,58,0.00,,,0.00,VWS V14.01,2013-02-14 19:53:00,
2013-02-14 11:58:00,53.8,38.9,30.09,NNW,338,4.0,4.5,57,0.00,,,0.00,VWS V14.01,2013-02-14 19:58:00,
2013-02-14 12:04:00,54.1,38.8,30.09,NNW,338,3.1,4.0,56,0.00,,,0.00,VWS V14.01,2013-02-14 20:04:00,
2013-02-14 12:09:00,54.5,38.7,30.09,NNW,338,3.6,4.0,55,0.00,,,0.00,VWS V14.01,2013-02-14 20:09:00,
2013-02-14 12:14:00,55.0,38.7,30.09,North,0,0.0,0.0,54,0.00,,,0.00,VWS V14.01,2013-02-14 20:14:00,
2013-02-14 12:19:00,55.6,38.2,30.09,NNE,22,0.0,2.7,52,0.00,,,0.00,VWS V14.01,2013-02-14 20:19:00,
2013-02-14 12:24:00,56.7,38.8,30.09,NNW,338,2.7,2.7,51,0.00,,,0.00,VWS V14.01,2013-02-14 20:24:00,
2013-02-14 12:29:00,57.2,38.2,30.12,North,0,2.7,2.7,49,0.00,,,0.00,VWS V14.01,2013-02-14 20:29:00,
2013-02-14 12:34:00,57.9,38.4,30.12,NW,315,3.6,3.6,48,0.00,,,0.00,VWS V14.01,2013-02-14 20:34:00,
2013-02-14 12:40:00,59.4,38.6,30.12,NNW,338,2.7,3.1,46,0.00,,,0.00,VWS V14.01,2013-02-14 20:40:00,
2013-02-14 12:45:00,61.0,37.8,30.09,NNW,338,3.1,3.6,42,0.00,,,0.00,VWS V14.01,2013-02-14 20:45:00,
2013-02-14 12:50:00,62.8,37.5,30.09,NNE,22,3.1,3.6,39,0.00,,,0.00,VWS V14.01,2013-02-14 20:50:00,
2013-02-14 12:55:00,63.9,37.1,30.09,NNW,338,2.7,3.1,37,0.00,,,0.00,VWS V14.01,2013-02-14 20:55:00,
2013-02-14 13:01:00,64.4,37.6,30.09,NNE,22,0.0,2.7,37,0.00,,,0.00,VWS V14.01,2013-02-14 21:01:00,
2013-02-14 13:06:00,64.4,36.9,30.09,East,90,0.0,2.7,36,0.00,,,0.00,VWS V14.01,2013-02-14 21:06:00,
2013-02-14 13:11:00,66.6,38.1,30.09,NNE,22,0.0,0.0,35,0.00,,,0.00,VWS V14.01,2013-02-14 21:11:00,
2013-02-14 13:17:00,65.8,38.2,30.09,North,0,2.7,2.7,36,0.00,,,0.00,VWS V14.01,2013-02-14 21:17:00,
2013-02-14 13:22:00,65.1,38.2,30.09,NNW,338,5.4,5.4,37,0.00,,,0.00,VWS V14.01,2013-02-14 21:22:00,
2013-02-14 13:27:00,65.1,38.2,30.09,NNE,22,0.0,0.0,37,0.00,,,0.00,VWS V14.01,2013-02-14 21:27:00,
2013-02-14 13:32:00,65.1,37.5,30.09,NW,315,2.7,4.0,36,0.00,,,0.00,VWS V14.01,2013-02-14 21:32:00,
2013-02-14 13:37:00,66.6,38.8,30.09,NNE,22,2.7,2.7,36,0.00,,,0.00,VWS V14.01,2013-02-14 21:37:00,
2013-02-14 13:42:00,65.8,38.2,30.09,ESE,112,0.0,3.1,36,0.00,,,0.00,VWS V14.01,2013-02-14 21:42:00,
2013-02-14 13:47:00,65.5,37.8,30.09,NNW,338,0.0,3.6,36,0.00,,,0.00,VWS V14.01,2013-02-14 21:47:00,
2013-02-14 13:53:00,65.5,37.1,30.09,East,90,2.7,3.6,35,0.00,,,0.00,VWS V14.01,2013-02-14 21:53:00,
2013-02-14 13:58:00,64.9,37.4,30.06,NNW,338,2.7,2.7,36,0.00,,,0.00,VWS V14.01,2013-02-14 21:58:00,
2013-02-14 14:03:00,64.2,36.7,30.06,NNW,338,2.7,3.6,36,0.00,,,0.00,VWS V14.01,2013-02-14 22:03:00,
2013-02-14 14:08:00,64.0,36.6,30.06,NE,45,2.7,2.7,36,0.00,,,0.00,VWS V14.01,2013-02-14 22:08:00,
2013-02-14 14:13:00,63.9,36.4,30.06,NNW,338,3.1,3.6,36,0.00,,,0.00,VWS V14.01,2013-02-14 22:13:00,
2013-02-14 14:18:00,63.7,36.2,30.06,North,0,2.7,2.7,36,0.00,,,0.00,VWS V14.01,2013-02-14 22:18:00,
2013-02-14 14:24:00,63.5,36.1,30.06,ENE,68,0.0,2.2,36,0.00,,,0.00,VWS V14.01,2013-02-14 22:24:00,
2013-02-14 14:29:00,63.7,36.2,30.06,North,0,0.0,0.0,36,0.00,,,0.00,VWS V14.01,2013-02-14 22:29:00,
2013-02-14 14:34:00,63.9,36.4,30.06,North,0,0.0,0.0,36,0.00,,,0.00,VWS V14.01,2013-02-14 22:34:00,
2013-02-14 14:39:00,64.2,36.7,30.06,North,0,0.0,0.0,36,0.00,,,0.00,VWS V14.01,2013-02-14 22:39:00,
2013-02-14 14:44:00,64.4,36.2,30.06,NNE,22,3.6,4.0,35,0.00,,,0.00,VWS V14.01,2013-02-14 22:44:00,
2013-02-14 14:49:00,64.6,37.0,30.06,NNE,22,0.0,4.0,36,0.00,,,0.00,VWS V14.01,2013-02-14 22:49:00,
2013-02-14 14:54:00,64.8,36.5,30.06,NNE,22,3.6,3.6,35,0.00,,,0.00,VWS V14.01,2013-02-14 22:54:00,
2013-02-14 14:59:00,64.9,36.7,30.06,North,0,2.7,3.1,35,0.00,,,0.00,VWS V14.01,2013-02-14 22:59:00,
2013-02-14 15:05:00,65.3,37.0,30.06,NNE,22,2.2,3.1,35,0.00,,,0.00,VWS V14.01,2013-02-14 23:05:00,
2013-02-14 15:10:00,65.5,37.1,30.06,ESE,112,0.0,2.2,35,0.00,,,0.00,VWS V14.01,2013-02-14 23:10:00,
2013-02-14 15:15:00,65.8,37.5,30.06,East,90,3.6,3.6,35,0.00,,,0.00,VWS V14.01,2013-02-14 23:15:00,
2013-02-14 15:20:00,66.0,37.6,30.06,NNE,22,0.0,2.2,35,0.00,,,0.00,VWS V14.01,2013-02-14 23:20:00,
2013-02-14 15:26:00,66.0,37.6,30.06,NE,45,0.0,0.0,35,0.00,,,0.00,VWS V14.01,2013-02-14 23:26:00,
2013-02-14 15:31:00,66.0,37.6,30.06,NNE,22,0.0,0.0,35,0.00,,,0.00,VWS V14.01,2013-02-14 23:31:00,
2013-02-14 15:36:00,66.0,37.6,30.06,North,0,0.0,3.1,35,0.00,,,0.00,VWS V14.01,2013-02-14 23:36:00,
2013-02-14 15:41:00,65.8,37.5,30.06,NNE,22,0.0,0.0,35,0.00,,,0.00,VWS V14.01,2013-02-14 23:41:00,
2013-02-14 15:46:00,65.7,37.3,30.06,North,0,0.0,0.0,35,0.00,,,0.00,VWS V14.01,2013-02-14 23:46:00,
2013-02-14 15:51:00,65.5,37.1,30.06,ESE,112,2.7,4.0,35,0.00,,,0.00,VWS V14.01,2013-02-14 23:51:00,
2013-02-14 15:56:00,65.5,37.1,30.06,East,90,0.0,0.0,35,0.00,,,0.00,VWS V14.01,2013-02-14 23:56:00,
2013-02-14 16:01:00,65.8,37.5,30.06,North,0,2.2,3.1,35,0.00,,,0.00,VWS V14.01,2013-02-15 00:01:00,
2013-02-14 16:06:00,66.7,38.2,30.06,NNW,338,0.0,2.7,35,0.00,,,0.00,VWS V14.01,2013-02-15 00:06:00,
2013-02-14 16:12:00,67.3,38.7,30.06,NNE,22,0.0,3.1,35,0.00,,,0.00,VWS V14.01,2013-02-15 00:12:00,
2013-02-14 16:17:00,67.3,38.0,30.06,NNE,22,2.2,3.6,34,0.00,,,0.00,VWS V14.01,2013-02-15 00:17:00,
2013-02-14 16:22:00,67.1,37.8,30.06,NNE,22,0.0,0.0,34,0.00,,,0.00,VWS V14.01,2013-02-15 00:22:00,
2013-02-14 16:27:00,66.7,37.5,30.06,NNE,22,0.0,0.0,34,0.00,,,0.00,VWS V14.01,2013-02-15 00:27:00,
2013-02-14 16:33:00,66.6,37.3,30.06,NNE,22,0.0,0.0,34,0.00,,,0.00,VWS V14.01,2013-02-15 00:33:00,
2013-02-14 16:38:00,66.4,37.2,30.06,NNE,22,3.1,3.6,34,0.00,,,0.00,VWS V14.01,2013-02-15 00:38:00,
2013-02-14 16:43:00,66.2,37.0,30.06,NNE,22,3.1,3.1,34,0.00,,,0.00,VWS V14.01,2013-02-15 00:43:00,
2013-02-14 16:48:00,66.2,37.0,30.06,NNE,22,0.0,2.7,34,0.00,,,0.00,VWS V14.01,2013-02-15 00:48:00,
2013-02-14 16:53:00,66.2,37.0,30.06,NE,45,0.0,2.7,34,0.00,,,0.00,VWS V14.01,2013-02-15 00:53:00,
2013-02-14 16:58:00,66.0,37.6,30.06,NE,45,2.7,4.0,35,0.00,,,0.00,VWS V14.01,2013-02-15 00:58:00,
2013-02-14 17:03:00,65.7,37.3,30.06,NNE,22,0.0,0.0,35,0.00,,,0.00,VWS V14.01,2013-02-15 01:03:00,
2013-02-14 17:09:00,65.5,37.1,30.06,NNE,22,0.0,0.0,35,0.00,,,0.00,VWS V14.01,2013-02-15 01:09:00,
2013-02-14 17:14:00,65.7,37.3,30.06,South,180,2.7,2.7,35,0.00,,,0.00,VWS V14.01,2013-02-15 01:14:00,
2013-02-14 17:19:00,65.5,37.1,30.06,SSE,158,0.0,0.0,35,0.00,,,0.00,VWS V14.01,2013-02-15 01:19:00,
2013-02-14 17:24:00,65.3,37.0,30.06,SSE,158,0.0,0.0,35,0.00,,,0.00,VWS V14.01,2013-02-15 01:24:00,
2013-02-14 17:29:00,64.9,36.7,30.06,SSW,202,0.0,0.0,35,0.00,,,0.00,VWS V14.01,2013-02-15 01:29:00,
2013-02-14 17:34:00,64.9,36.7,30.06,SW,225,0.0,0.0,35,0.00,,,0.00,VWS V14.01,2013-02-15 01:34:00,
2013-02-14 17:39:00,64.8,36.5,30.06,SW,225,0.0,0.0,35,0.00,,,0.00,VWS V14.01,2013-02-15 01:39:00,
2013-02-14 17:44:00,64.6,37.0,30.06,SSW,202,0.0,0.0,36,0.00,,,0.00,VWS V14.01,2013-02-15 01:44:00,
2013-02-14 17:49:00,64.2,36.7,30.06,WSW,248,0.0,3.1,36,0.00,,,0.00,VWS V14.01,2013-02-15 01:49:00,
2013-02-14 17:55:00,63.9,36.4,30.06,SW,225,2.7,2.7,36,0.00,,,0.00,VWS V14.01,2013-02-15 01:55:00,
2013-02-14 18:00:00,63.7,36.2,30.06,SSW,202,2.2,3.6,36,0.00,,,0.00,VWS V14.01,2013-02-15 02:00:00,
2013-02-14 18:05:00,63.7,36.2,30.06,SSW,202,2.2,2.7,36,0.00,,,0.00,VWS V14.01,2013-02-15 02:05:00,
2013-02-14 18:10:00,64.0,36.6,30.06,SSW,202,3.6,3.6,36,0.00,,,0.00,VWS V14.01,2013-02-15 02:10:00,
2013-02-14 18:15:00,63.5,36.1,30.06,SSW,202,2.2,2.7,36,0.00,,,0.00,VWS V14.01,2013-02-15 02:15:00,
2013-02-14 18:21:00,63.1,35.8,30.06,WSW,248,2.2,2.7,36,0.00,,,0.00,VWS V14.01,2013-02-15 02:21:00,
2013-02-14 18:26:00,63.0,35.6,30.06,WSW,248,0.0,2.2,36,0.00,,,0.00,VWS V14.01,2013-02-15 02:26:00,
2013-02-14 18:31:00,62.8,35.5,30.06,SSW,202,2.7,3.1,36,0.00,,,0.00,VWS V14.01,2013-02-15 02:31:00,
2013-02-14 18:36:00,62.8,35.5,30.06,SSW,202,2.7,2.7,36,0.00,,,0.00,VWS V14.01,2013-02-15 02:36:00,
2013-02-14 18:41:00,62.8,35.5,30.06,SSW,202,2.2,2.7,36,0.00,,,0.00,VWS V14.01,2013-02-15 02:41:00,
2013-02-14 18:46:00,62.8,36.2,30.06,WSW,248,3.1,3.1,37,0.00,,,0.00,VWS V14.01,2013-02-15 02:46:00,
2013-02-14 18:51:00,62.6,36.0,30.06,SSW,202,0.0,0.0,37,0.00,,,0.00,VWS V14.01,2013-02-15 02:51:00,
2013-02-14 18:56:00,62.6,36.0,30.06,SSW,202,2.2,2.7,37,0.00,,,0.00,VWS V14.01,2013-02-15 02:56:00,
2013-02-14 19:01:00,62.4,35.8,30.06,SSW,202,0.0,0.0,37,0.00,,,0.00,VWS V14.01,2013-02-15 03:01:00,
2013-02-14 19:06:00,62.4,35.8,30.06,SSW,202,0.0,0.0,37,0.00,,,0.00,VWS V14.01,2013-02-15 03:06:00,
2013-02-14 19:11:00,62.2,35.7,30.06,SSW,202,0.0,0.0,37,0.00,,,0.00,VWS V14.01,2013-02-15 03:11:00,
2013-02-14 19:17:00,62.6,36.0,30.06,SSW,202,2.2,2.7,37,0.00,,,0.00,VWS V14.01,2013-02-15 03:17:00,
2013-02-14 19:22:00,62.8,36.2,30.06,SW,225,0.0,0.0,37,0.00,,,0.00,VWS V14.01,2013-02-15 03:22:00,
2013-02-14 19:27:00,63.0,36.3,30.06,SW,225,0.0,0.0,37,0.00,,,0.00,VWS V14.01,2013-02-15 03:27:00,
2013-02-14 19:32:00,62.6,36.7,30.09,NNW,338,0.0,0.0,38,0.00,,,0.00,VWS V14.01,2013-02-15 03:32:00,
2013-02-14 19:38:00,62.4,36.5,30.09,NNW,338,0.0,0.0,38,0.00,,,0.00,VWS V14.01,2013-02-15 03:38:00,
2013-02-14 19:43:00,62.2,36.3,30.06,NNW,338,0.0,0.0,38,0.00,,,0.00,VWS V14.01,2013-02-15 03:43:00,
2013-02-14 19:48:00,62.1,36.8,30.06,NNW,338,0.0,0.0,39,0.00,,,0.00,VWS V14.01,2013-02-15 03:48:00,
2013-02-14 19:53:00,61.7,36.5,30.06,NNW,338,0.0,0.0,39,0.00,,,0.00,VWS V14.01,2013-02-15 03:53:00,
2013-02-14 19:59:00,61.7,36.5,30.06,NNW,338,0.0,0.0,39,0.00,,,0.00,VWS V14.01,2013-02-15 03:59:00,
2013-02-14 20:04:00,61.9,36.7,30.06,NNW,338,0.0,0.0,39,0.00,,,0.00,VWS V14.01,2013-02-15 04:04:00,
2013-02-14 20:09:00,62.1,36.8,30.06,NE,45,0.0,0.0,39,0.00,,,0.00,VWS V14.01,2013-02-15 04:09:00,
2013-02-14 20:14:00,61.5,37.6,30.06,North,0,2.2,2.7,41,0.00,,,0.00,VWS V14.01,2013-02-15 04:14:00,
2013-02-14 20:19:00,61.2,37.3,30.06,NNW,338,0.0,0.0,41,0.00,,,0.00,VWS V14.01,2013-02-15 04:19:00,
2013-02-14 20:24:00,61.0,37.8,30.06,North,0,0.0,0.0,42,0.00,,,0.00,VWS V14.01,2013-02-15 04:24:00,
2013-02-14 20:29:00,60.8,37.6,30.06,NNE,22,0.0,0.0,42,0.00,,,0.00,VWS V14.01,2013-02-15 04:29:00,
2013-02-14 20:35:00,60.6,38.0,30.06,NNE,22,0.0,0.0,43,0.00,,,0.00,VWS V14.01,2013-02-15 04:35:00,
2013-02-14 20:40:00,60.4,37.3,30.06,NNE,22,3.1,3.1,42,0.00,,,0.00,VWS V14.01,2013-02-15 04:40:00,
2013-02-14 20:45:00,60.6,36.8,30.09,ENE,68,3.1,3.6,41,0.00,,,0.00,VWS V14.01,2013-02-15 04:45:00,
2013-02-14 20:50:00,60.6,36.8,30.09,North,0,2.7,3.1,41,0.00,,,0.00,VWS V14.01,2013-02-15 04:50:00,
2013-02-14 20:55:00,60.6,36.8,30.09,NNW,338,3.1,3.1,41,0.00,,,0.00,VWS V14.01,2013-02-15 04:55:00,
2013-02-14 21:00:00,60.1,36.9,30.09,NNW,338,2.2,3.1,42,0.00,,,0.00,VWS V14.01,2013-02-15 05:00:00,
2013-02-14 21:04:00,59.9,37.4,30.09,North,0,2.2,3.1,43,0.00,,,0.00,VWS V14.01,2013-02-15 05:04:00,
2013-02-14 21:05:00,59.7,37.2,30.09,NNW,338,3.1,3.1,43,0.00,,,0.00,VWS V14.01,2013-02-15 05:05:00,
2013-02-14 21:10:00,59.5,37.6,30.09,NNW,338,3.1,4.0,44,0.00,,,0.00,VWS V14.01,2013-02-15 05:10:00,
2013-02-14 21:15:00,59.2,38.4,30.09,North,0,0.0,0.0,46,0.00,,,0.00,VWS V14.01,2013-02-15 05:15:00,
2013-02-14 21:20:00,58.8,38.7,30.09,North,0,2.2,2.7,47,0.00,,,0.00,VWS V14.01,2013-02-15 05:20:00,
2013-02-14 21:26:00,58.5,38.9,30.09,NNW,338,0.0,2.7,48,0.00,,,0.00,VWS V14.01,2013-02-15 05:26:00,
2013-02-14 21:31:00,58.3,38.7,30.09,NNW,338,2.2,4.0,48,0.00,,,0.00,VWS V14.01,2013-02-15 05:31:00,
2013-02-14 21:36:00,58.1,39.1,30.09,NNW,338,0.0,2.2,49,0.00,,,0.00,VWS V14.01,2013-02-15 05:36:00,
2013-02-14 21:41:00,57.9,39.4,30.09,NNW,338,0.0,2.2,50,0.00,,,0.00,VWS V14.01,2013-02-15 05:41:00,
2013-02-14 21:46:00,57.6,39.6,30.09,North,0,0.0,2.2,51,0.00,,,0.00,VWS V14.01,2013-02-15 05:46:00,
2013-02-14 21:52:00,57.4,39.4,30.09,North,0,3.6,3.6,51,0.00,,,0.00,VWS V14.01,2013-02-15 05:52:00,
2013-02-14 21:57:00,57.4,39.9,30.09,NNW,338,0.0,0.0,52,0.00,,,0.00,VWS V14.01,2013-02-15 05:57:00,
2013-02-14 22:02:00,57.2,39.8,30.09,NNW,338,3.6,3.6,52,0.00,,,0.00,VWS V14.01,2013-02-15 06:02:00,
2013-02-14 22:07:00,57.2,39.8,30.09,NNE,22,0.0,2.7,52,0.00,,,0.00,VWS V14.01,2013-02-15 06:07:00,
2013-02-14 22:12:00,57.4,39.9,30.09,North,0,2.2,2.2,52,0.00,,,0.00,VWS V14.01,2013-02-15 06:12:00,
2013-02-14 22:17:00,57.4,39.4,30.09,NNE,22,3.1,3.1,51,0.00,,,0.00,VWS V14.01,2013-02-15 06:17:00,
2013-02-14 22:22:00,57.6,39.6,30.09,ENE,68,3.1,3.6,51,0.00,,,0.00,VWS V14.01,2013-02-15 06:22:00,
2013-02-14 22:28:00,57.6,39.1,30.09,East,90,0.0,2.2,50,0.00,,,0.00,VWS V14.01,2013-02-15 06:28:00,
2013-02-14 22:33:00,57.6,38.6,30.09,NNE,22,2.7,3.6,49,0.00,,,0.00,VWS V14.01,2013-02-15 06:33:00,
2013-02-14 22:38:00,57.6,38.6,30.09,NNW,338,0.0,0.0,49,0.00,,,0.00,VWS V14.01,2013-02-15 06:38:00,
2013-02-14 22:43:00,57.7,38.7,30.09,NNW,338,0.0,2.7,49,0.00,,,0.00,VWS V14.01,2013-02-15 06:43:00,
2013-02-14 22:48:00,57.6,38.6,30.09,NNW,338,0.0,0.0,49,0.00,,,0.00,VWS V14.01,2013-02-15 06:48:00,
2013-02-14 22:53:00,57.6,39.1,30.09,North,0,0.0,0.0,50,0.00,,,0.00,VWS V14.01,2013-02-15 06:53:00,
2013-02-14 22:59:00,57.6,39.1,30.09,North,0,3.1,3.1,50,0.00,,,0.00,VWS V14.01,2013-02-15 06:59:00,
2013-02-14 23:04:00,57.4,38.9,30.09,NNE,22,0.0,0.0,50,0.00,,,0.00,VWS V14.01,2013-02-15 07:04:00,
2013-02-14 23:09:00,57.4,39.4,30.09,North,0,2.7,2.7,51,0.00,,,0.00,VWS V14.01,2013-02-15 07:09:00,
2013-02-14 23:14:00,57.2,39.2,30.09,North,0,4.0,4.0,51,0.00,,,0.00,VWS V14.01,2013-02-15 07:14:00,
2013-02-14 23:19:00,57.2,39.2,30.09,North,0,2.7,2.7,51,0.00,,,0.00,VWS V14.01,2013-02-15 07:19:00,
2013-02-14 23:24:00,57.2,39.2,30.09,North,0,3.1,3.6,51,0.00,,,0.00,VWS V14.01,2013-02-15 07:24:00,
2013-02-14 23:29:00,57.0,39.1,30.09,NNW,338,0.0,2.7,51,0.00,,,0.00,VWS V14.01,2013-02-15 07:29:00,
2013-02-14 23:35:00,56.8,38.9,30.09,North,0,4.0,4.0,51,0.00,,,0.00,VWS V14.01,2013-02-15 07:35:00,
2013-02-14 23:40:00,56.8,39.4,30.09,North,0,3.6,3.6,52,0.00,,,0.00,VWS V14.01,2013-02-15 07:40:00,
2013-02-14 23:45:00,56.7,39.2,30.09,North,0,0.0,2.7,52,0.00,,,0.00,VWS V14.01,2013-02-15 07:45:00,
2013-02-14 23:50:00,56.5,39.1,30.09,NE,45,0.0,0.0,52,0.00,,,0.00,VWS V14.01,2013-02-15 07:50:00,
2013-02-14 23:55:00,56.3,39.4,30.09,NNE,22,2.7,2.7,53,0.00,,,0.00,VWS V14.01,2013-02-15 07:55:00,